Time,TemperatureF,DewpointF,PressureIn,WindDirection,WindDirectionDegrees,WindSpeedMPH,WindSpeedGustMPH,Humidity,HourlyPrecipIn,Conditions,Clouds,dailyrainin,SoftwareType,DateUTC
2013-06-02 00:00:00,50.0,27.0,-100.00,WSW,248,12.0,16.0,41,0.00,,,0.00,,2013-06-02 06:00:00,
2013-06-02 00:32:00,50.0,27.0,-100.00,WSW,248,12.0,16.0,41,0.00,,,0.00,,2013-06-02 06:32:00,
2013-06-02 00:41:00,50.0,27.0,-100.00,WSW,248,12.0,16.0,41,0.00,,,0.00,,2013-06-02 06:41:00,
2013-06-02 00:52:00,50.0,27.0,-100.00,WSW,248,12.0,16.0,41,0.00,,,0.00,,2013-06-02 06:52:00,
2013-06-02 01:00:00,46.0,28.0,-100.00,West,270,4.0,6.0,48,0.00,,,0.00,,2013-06-02 07:00:00,
2013-06-02 01:31:00,46.0,28.0,-100.00,West,270,4.0,6.0,48,0.00,,,0.00,,2013-06-02 07:31:00,
2013-06-02 01:42:00,46.0,28.0,-100.00,West,270,4.0,6.0,48,0.00,,,0.00,,2013-06-02 07:42:00,
2013-06-02 01:52:00,46.0,28.0,-100.00,West,270,4.0,6.0,48,0.00,,,0.00,,2013-06-02 07:52:00,
2013-06-02 02:00:00,46.0,28.0,-100.00,West,264,5.0,7.0,50,0.00,,,0.00,,2013-06-02 08:00:00,
2013-06-02 02:31:00,46.0,28.0,-100.00,West,264,5.0,7.0,50,0.00,,,0.00,,2013-06-02 08:31:00,
2013-06-02 02:41:00,46.0,28.0,-100.00,West,264,5.0,7.0,50,0.00,,,0.00,,2013-06-02 08:41:00,
2013-06-02 02:52:00,46.0,28.0,-100.00,West,264,5.0,7.0,50,0.00,,,0.00,,2013-06-02 08:52:00,
2013-06-02 03:00:00,45.0,29.0,-100.00,WSW,249,5.0,6.0,54,0.00,,,0.00,,2013-06-02 09:00:00,
2013-06-02 03:33:00,45.0,29.0,-100.00,WSW,249,5.0,6.0,54,0.00,,,0.00,,2013-06-02 09:33:00,
2013-06-02 03:42:00,45.0,29.0,-100.00,WSW,249,5.0,6.0,54,0.00,,,0.00,,2013-06-02 09:42:00,
2013-06-02 03:53:00,45.0,29.0,-100.00,WSW,249,5.0,6.0,54,0.00,,,0.00,,2013-06-02 09:53:00,
2013-06-02 04:00:00,45.0,28.0,-100.00,WSW,244,4.0,6.0,53,0.00,,,0.00,,2013-06-02 10:00:00,
2013-06-02 04:32:00,45.0,28.0,-100.00,WSW,244,4.0,6.0,53,0.00,,,0.00,,2013-06-02 10:32:00,
2013-06-02 04:42:00,45.0,28.0,-100.00,WSW,244,4.0,6.0,53,0.00,,,0.00,,2013-06-02 10:42:00,
2013-06-02 04:52:00,45.0,28.0,-100.00,WSW,244,4.0,6.0,53,0.00,,,0.00,,2013-06-02 10:52:00,
2013-06-02 05:00:00,45.0,27.0,-100.00,WSW,258,7.0,8.0,50,0.00,,,0.00,,2013-06-02 11:00:00,
2013-06-02 05:32:00,45.0,27.0,-100.00,WSW,258,7.0,8.0,50,0.00,,,0.00,,2013-06-02 11:32:00,
2013-06-02 05:42:00,45.0,27.0,-100.00,WSW,258,7.0,8.0,50,0.00,,,0.00,,2013-06-02 11:42:00,
2013-06-02 05:52:00,45.0,27.0,-100.00,WSW,258,7.0,8.0,50,0.00,,,0.00,,2013-06-02 11:52:00,
2013-06-02 06:00:00,44.0,29.0,-100.00,NW,325,1.0,2.0,54,0.00,,,0.00,,2013-06-02 12:00:00,
2013-06-02 06:31:00,44.0,29.0,-100.00,NW,325,1.0,2.0,54,0.00,,,0.00,,2013-06-02 12:31:00,
2013-06-02 06:42:00,44.0,29.0,-100.00,NW,325,1.0,2.0,54,0.00,,,0.00,,2013-06-02 12:42:00,
2013-06-02 06:52:00,44.0,29.0,-100.00,NW,325,1.0,2.0,54,0.00,,,0.00,,2013-06-02 12:52:00,
2013-06-02 07:00:00,47.0,30.0,-100.00,South,176,1.0,3.0,52,0.00,,,0.00,,2013-06-02 13:00:00,
2013-06-02 07:32:00,47.0,30.0,-100.00,South,176,1.0,3.0,52,0.00,,,0.00,,2013-06-02 13:32:00,
2013-06-02 07:41:00,47.0,30.0,-100.00,South,176,1.0,3.0,52,0.00,,,0.00,,2013-06-02 13:41:00,
2013-06-02 07:52:00,47.0,30.0,-100.00,South,176,1.0,3.0,52,0.00,,,0.00,,2013-06-02 13:52:00,
2013-06-02 08:00:00,49.0,33.0,-100.00,ENE,77,2.0,3.0,52,0.00,,,0.00,,2013-06-02 14:00:00,
2013-06-02 08:32:00,49.0,33.0,-100.00,ENE,77,2.0,3.0,52,0.00,,,0.00,,2013-06-02 14:32:00,
2013-06-02 08:41:00,49.0,33.0,-100.00,ENE,77,2.0,3.0,52,0.00,,,0.00,,2013-06-02 14:41:00,
2013-06-02 08:52:00,49.0,33.0,-100.00,ENE,77,2.0,3.0,52,0.00,,,0.00,,2013-06-02 14:52:00,
2013-06-02 09:00:00,53.0,36.0,-100.00,ENE,77,5.0,7.0,51,0.00,,,0.00,,2013-06-02 15:00:00,
2013-06-02 09:32:00,53.0,36.0,-100.00,ENE,77,5.0,7.0,51,0.00,,,0.00,,2013-06-02 15:32:00,
2013-06-02 09:43:00,53.0,36.0,-100.00,ENE,77,5.0,7.0,51,0.00,,,0.00,,2013-06-02 15:43:00,
2013-06-02 09:53:00,53.0,36.0,-100.00,ENE,77,5.0,7.0,51,0.00,,,0.00,,2013-06-02 15:53:00,
2013-06-02 10:00:00,57.0,38.0,-100.00,NE,54,4.0,6.0,49,0.00,,,0.00,,2013-06-02 16:00:00,
2013-06-02 10:33:00,57.0,38.0,-100.00,NE,54,4.0,6.0,49,0.00,,,0.00,,2013-06-02 16:33:00,
2013-06-02 10:42:00,57.0,38.0,-100.00,NE,54,4.0,6.0,49,0.00,,,0.00,,2013-06-02 16:42:00,
2013-06-02 10:52:00,57.0,38.0,-100.00,NE,54,4.0,6.0,49,0.00,,,0.00,,2013-06-02 16:52:00,
2013-06-02 11:00:00,61.0,40.0,-100.00,ESE,109,4.0,9.0,46,0.00,,,0.00,,2013-06-02 17:00:00,
2013-06-02 11:32:00,61.0,40.0,-100.00,ESE,109,4.0,9.0,46,0.00,,,0.00,,2013-06-02 17:32:00,
2013-06-02 11:42:00,61.0,40.0,-100.00,ESE,109,4.0,9.0,46,0.00,,,0.00,,2013-06-02 17:42:00,
2013-06-02 11:52:00,61.0,40.0,-100.00,ESE,109,4.0,9.0,46,0.00,,,0.00,,2013-06-02 17:52:00,
2013-06-02 12:32:00,64.0,42.0,-100.00,ENE,64,12.0,15.0,45,0.00,,,0.00,,2013-06-02 18:32:00,
2013-06-02 13:00:00,69.0,25.0,-100.00,SW,224,3.0,9.0,19,0.00,,,0.00,,2013-06-02 19:00:00,
2013-06-02 13:32:00,69.0,25.0,-100.00,SW,224,3.0,9.0,19,0.00,,,0.00,,2013-06-02 19:32:00,
2013-06-02 13:42:00,69.0,25.0,-100.00,SW,224,3.0,9.0,19,0.00,,,0.00,,2013-06-02 19:42:00,
2013-06-02 13:52:00,69.0,25.0,-100.00,SW,224,3.0,9.0,19,0.00,,,0.00,,2013-06-02 19:52:00,
2013-06-02 14:00:00,71.0,22.0,-100.00,West,269,8.0,14.0,16,0.00,,,0.00,,2013-06-02 20:00:00,
2013-06-02 14:32:00,71.0,22.0,-100.00,West,269,8.0,14.0,16,0.00,,,0.00,,2013-06-02 20:32:00,
2013-06-02 14:42:00,71.0,22.0,-100.00,West,269,8.0,14.0,16,0.00,,,0.00,,2013-06-02 20:42:00,
2013-06-02 14:52:00,71.0,22.0,-100.00,West,269,8.0,14.0,16,0.00,,,0.00,,2013-06-02 20:52:00,
2013-06-02 15:00:00,73.0,24.0,-100.00,WSW,239,10.0,15.0,16,0.00,,,0.00,,2013-06-02 21:00:00,
2013-06-02 15:33:00,73.0,24.0,-100.00,WSW,239,10.0,15.0,16,0.00,,,0.00,,2013-06-02 21:33:00,
2013-06-02 15:42:00,73.0,24.0,-100.00,WSW,239,10.0,15.0,16,0.00,,,0.00,,2013-06-02 21:42:00,
2013-06-02 15:53:00,73.0,24.0,-100.00,WSW,239,10.0,15.0,16,0.00,,,0.00,,2013-06-02 21:53:00,
2013-06-02 16:00:00,72.0,19.0,-100.00,West,262,21.0,33.0,13,0.01,,,0.01,,2013-06-02 22:00:00,
2013-06-02 16:33:00,72.0,19.0,-100.00,West,262,21.0,33.0,13,0.01,,,0.01,,2013-06-02 22:33:00,
2013-06-02 16:42:00,72.0,19.0,-100.00,West,262,21.0,33.0,13,0.01,,,0.01,,2013-06-02 22:42:00,
2013-06-02 16:52:00,72.0,19.0,-100.00,West,262,21.0,33.0,13,0.01,,,0.01,,2013-06-02 22:52:00,
2013-06-02 17:00:00,73.0,22.0,-100.00,West,259,13.0,21.0,15,-99.99,,,0.00,,2013-06-02 23:00:00,
2013-06-02 17:32:00,73.0,22.0,-100.00,West,259,13.0,21.0,15,-99.99,,,0.00,,2013-06-02 23:32:00,
2013-06-02 17:42:00,73.0,22.0,-100.00,West,259,13.0,21.0,15,-99.99,,,0.00,,2013-06-02 23:42:00,
2013-06-02 17:52:00,73.0,22.0,-100.00,West,259,13.0,21.0,15,-99.99,,,0.00,,2013-06-02 23:52:00,
2013-06-02 19:00:00,71.0,18.0,-100.00,WSW,239,13.0,19.0,13,0.00,,,0.00,,2013-06-03 01:00:00,
2013-06-02 19:32:00,71.0,18.0,-100.00,WSW,239,13.0,19.0,13,0.00,,,0.00,,2013-06-03 01:32:00,
2013-06-02 19:42:00,71.0,18.0,-100.00,WSW,239,13.0,19.0,13,0.00,,,0.00,,2013-06-03 01:42:00,
2013-06-02 19:52:00,71.0,18.0,-100.00,WSW,239,13.0,19.0,13,0.00,,,0.00,,2013-06-03 01:52:00,
2013-06-02 20:00:00,70.0,17.0,-100.00,West,260,15.0,21.0,13,0.00,,,0.00,,2013-06-03 02:00:00,
2013-06-02 20:32:00,70.0,17.0,-100.00,West,260,15.0,21.0,13,0.00,,,0.00,,2013-06-03 02:32:00,
2013-06-02 20:42:00,70.0,17.0,-100.00,West,260,15.0,21.0,13,0.00,,,0.00,,2013-06-03 02:42:00,
2013-06-02 20:52:00,70.0,17.0,-100.00,West,260,15.0,21.0,13,0.00,,,0.00,,2013-06-03 02:52:00,
2013-06-02 21:00:00,65.0,22.0,-100.00,West,263,2.0,4.0,19,0.00,,,0.00,,2013-06-03 03:00:00,
2013-06-02 21:33:00,65.0,22.0,-100.00,West,263,2.0,4.0,19,0.00,,,0.00,,2013-06-03 03:33:00,
2013-06-02 21:43:00,65.0,22.0,-100.00,West,263,2.0,4.0,19,0.00,,,0.00,,2013-06-03 03:43:00,
2013-06-02 21:53:00,65.0,22.0,-100.00,West,263,2.0,4.0,19,0.00,,,0.00,,2013-06-03 03:53:00,
2013-06-02 22:00:00,64.0,22.0,-100.00,West,281,5.0,6.0,20,0.00,,,0.00,,2013-06-03 04:00:00,
2013-06-02 22:33:00,64.0,22.0,-100.00,West,281,5.0,6.0,20,0.00,,,0.00,,2013-06-03 04:33:00,
2013-06-02 22:42:00,64.0,22.0,-100.00,West,281,5.0,6.0,20,0.00,,,0.00,,2013-06-03 04:42:00,
2013-06-02 22:53:00,64.0,22.0,-100.00,West,281,5.0,6.0,20,0.00,,,0.00,,2013-06-03 04:53:00,
2013-06-02 23:00:00,58.0,27.0,-100.00,West,264,1.0,4.0,30,0.00,,,0.00,,2013-06-03 05:00:00,
2013-06-02 23:32:00,58.0,27.0,-100.00,West,264,1.0,4.0,30,0.00,,,0.00,,2013-06-03 05:32:00,
2013-06-02 23:42:00,58.0,27.0,-100.00,West,264,1.0,4.0,30,0.00,,,0.00,,2013-06-03 05:42:00,
2013-06-02 23:52:00,58.0,27.0,-100.00,West,264,1.0,4.0,30,0.00,,,0.00,,2013-06-03 05:52:00,